星链-34345 (STARLINK-34345)

导读

STARLINK-34345是美国于2025年5月27日发射的星链卫星,隶属于SpaceX公司的星链项目。该项目旨在构建全球卫星互联网星座,为全球尤其是偏远地区提供高速低延迟网络接入服务,此卫星发射进一步扩充了星链星座的在轨卫星规模,推进了全球网络覆盖布局。

基本信息
目录编号:
64153
目录名称:
STARLINK-34345
国际标识:
2025-112H
轨道中心:
EARTH
卫星名称:
星链-34345
卫星全名:
星链-34345 (STARLINK-34345)
卫星状态:
在轨 (已飞行465 天)
发射日期:
2025-05-27 UTC
国别 :
美国 (US)
星等 :
--
轨道信息
数据来源 国际轨道数据
星历时间: 2026-09-04T10:07:11+0800
9小时前
查看轨道信息
半长轴: 6843.669km
偏心率: 0.00019
轨道倾角: 97.284°
近地点辐角 106.157°
升交点赤经 294.399°
平近点角 253.989°
近地点: 464.231km
远地点: 466.833km
周期: 93.906分钟
每日圈数: 15.33449
详细信息
固有亮度:
5
最大亮度:
2.5
卫星平台:
Starlink V1.0
覆盖范围:
全球
运营商:
太空探索技术公司
运营商所在国:
美国
制造商(研发单位):
太空探索技术公司
制造商所在国:
美国
使用方式:
暂无
卫星简介
Starlink 计划是 SpaceX 推出的全球卫星互联网项目,通过发射低轨道卫星,为全球尤其是偏远地区提供高速、低延迟的互联网服务。自 2019 年起,Starlink 已部署数千颗卫星,旨在缩小全球数字鸿沟,推动互联网普及。该项目还为军事、航空等行业提供通信支持,带来广泛经济效益。
2D轨道图
3D轨道图
轨道高度分析图
轨道倾角分析图
轨道综合分析图
查看轨道综合分析图
交会数据列表
事件ID 空间交会对象 最接近时刻(TCA) 交会距离 交会风险概率(CRP) 交会风险指数(CRI) 操作
CDM_260905-135906-415306-533221
2026-09-05T
13:59:15+0000
2.472 km
极远距离
1.764977E-6 低风险 0.4
CDM_260902-065906-415306-533321
2026-09-02T
06:59:51+0000
2.968 km
极远距离
1.353753E-6 低风险 0.38
CDM_260904-182004-843806-415321
2026-09-04T
18:20:53+0000
2.898 km
极远距离
1.330973E-6 低风险 0.37
CDM_260904-114406-415306-625421
2026-09-04T
11:44:21+0000
2.868 km
极远距离
1.329045E-6 低风险 0.37